SCP
0 0 0 0 0 -0 0 0 0 0 -0 -0 -0 -0 0 -0 -0 0 0 0 0 0 -0 -0 -0 0 0 0 0 0 0 0
0 0 0 0 -0 0 0 0 0 0 0 -0 -0 -0 0 0 -0 -0 0 0 0 -0 -0 -0 -0 -0 0 0 0 0 1 1
0 -0 0 -0 0 0 0 0 0 0 0 -0 -0 -0 -0 0 0 0 0 0 0 -0 -0 -0 -0 -0 -1 -0 0 1 1 1
-0 -0 0 0 0 0 0 0 0 0 0 -0 -0 0 -0 0 0 0 -0 0 0 -0 -0 0 -0 -0 -0 -0 0 0 0 0
0 -0 0 0 0 0 0 0 0 -0 -0 -0 -0 0 0 0 0 0 0 0 0 0 -0 -0 0 0 0 0 0 0 0 0
-0 -0 0 0 0 0 0 0 -0 0 0 -0 -0 -0 0 -0 -0 -0 0 0 0 0 0 0 0 -0 0 0 -0 -0 -0 0
-0 0 0 0 0 0 0 0 -0 -0 -0 0 0 -0 -0 -0 0 0 0 0 0 0 0 0 0 0 0 0 0 0 0 0
0 0 0 0 0 0 0 0 0 0 0 0 0 -0 0 0 0 0 0 0 0 0 0 -0 -0 -0 -0 0 -0 -0 -0 -0
0 0 0 0 0 -0 0 0 0 0 0 0 0 0 0 0 0 0 0 0 0 0 -0 -0 -0 -0 -0 -0 -0 -0 -0 -0
0 0 0 -0 -0 0 0 0 0 0 0 0 0 0 0 0 0 0 0 0 -0 -0 -0 -0 -0 -0 -0 -0 -0 -0 -0 -0
-0 0 0 0 0 0 0 0 0 0 0 0 0 0 0 0 0 0 0 0 0 -0 -0 -0 -0 -0 -0 -0 -0 -0 -0 0
-0 0 0 0 0 0 0 0 0 0 0 0 0 0 0 0 0 0 0 0 0 0 0 0 0 0 -0 -0 -0 0 0 0
0 0 0 0 0 0 0 0 0 0 0 0 0 0 0 0 0 0 0 0 0 0 0 0 0 0 0 0 0 0 0 0
-0 0 0 0 0 0 0 0 0 0 0 0 0 0 0 0 0 0 0 0 0 0 0 0 0 0 0 0 0 0 -0 -0
-0 -0 0 0 0 0 0 0 0 0 0 0 0 0 0 0 0 0 0 0 0 0 0 0 0 0 0 0 0 0 0 0
0 0 0 0 0 0 0 0 0 0 0 -0 0 0 0 0 0 0 0 0 0 0 0 0 0 0 0 0 0 0 0 0
0 0 0 0 0 0 0 0 0 0 0 0 0 0 0 0 0 0 0 0 0 0 0 0 0 0 0 0 0 0 0 0
0 0 0 0 0 0 0 0 0 0 0 0 0 0 0 0 0 0 0 0 0 0 0 0 0 0 0 0 0 0 0 0
0 0 0 0 0 0 0 0 0 0 0 0 0 0 0 0 0 0 0 0 0 0 0 0 0 0 0 0 0 0 0 0
-0 0 0 0 0 0 0 0 0 0 0 0 0 0 0 0 0 0 0 0 0 0 0 0 0 0 0 0 0 0 0 0
Wind_Speed_500mb
8 7 7 8 3 13 21 11 8 9 9 5 5 11 15 12 7 8 10 10 10 8 4 6 7 6 5 4 5 6 8 10
9 6 7 7 14 19 20 9 17 10 6 8 5 11 22 11 12 12 11 10 10 10 10 8 8 8 7 3 8 10 11 11
8 6 3 9 11 14 11 9 13 10 4 9 10 27 23 20 12 9 8 5 6 7 6 4 2 6 6 3 4 9 13 15
3 4 3 6 20 46 38 28 16 17 6 5 26 15 15 11 11 12 7 7 10 12 10 8 6 3 1 3 3 7 11 14
11 12 6 7 14 17 16 11 6 18 7 13 16 13 16 14 15 16 15 14 17 9 10 10 14 12 13 12 8 13 19 23
2 9 9 5 12 31 14 4 9 5 9 12 27 24 15 16 11 9 15 12 13 17 17 22 19 13 8 7 12 13 14 18
9 10 10 14 13 22 20 26 11 3 14 31 25 19 15 16 18 14 25 31 34 35 26 24 28 26 18 12 16 19 23 28
7 10 10 15 22 23 15 32 29 32 25 23 12 23 28 31 28 31 37 43 38 34 36 32 35 33 32 33 33 38 39 39
5 27 25 11 11 14 45 10 32 36 44 46 46 41 38 37 38 43 44 41 31 30 32 35 40 45 51 54 51 48 46 46
13 23 21 7 10 18 25 29 47 52 52 57 53 48 44 42 39 38 39 40 37 36 42 45 46 53 59 52 45 55 52 47
44 33 21 27 20 21 34 35 46 52 51 48 46 42 39 35 36 34 31 30 32 35 41 43 48 46 52 56 55 56 45 40
42 28 25 32 5 9 23 43 47 47 44 37 34 35 36 31 30 24 22 21 24 25 27 37 35 34 45 39 41 44 54 57
16 24 13 29 13 15 35 45 51 41 40 35 28 26 24 23 23 19 15 20 21 23 27 32 32 36 37 41 46 52 57 60
13 25 18 6 4 7 30 45 44 40 37 34 28 23 21 24 19 12 15 15 14 17 25 30 30 36 42 47 52 60 68 68
15 31 4 6 9 8 33 38 32 38 31 29 28 26 27 23 12 13 8 8 16 21 29 28 27 32 41 49 56 61 63 65
14 7 10 19 15 9 31 37 28 27 32 29 26 26 23 17 11 5 2 13 18 25 25 28 33 37 45 57 61 59 61 60
9 1 14 15 23 9 19 32 27 30 35 29 25 20 18 12 11 9 9 16 19 23 29 36 43 50 56 58 54 55 54 54
9 10 16 14 13 5 11 26 32 43 34 30 21 22 13 15 17 10 11 15 18 25 32 40 49 51 50 50 50 51 51 53
14 16 19 23 7 1 5 8 7 29 36 29 19 22 24 22 14 7 7 11 19 29 40 45 45 49 53 55 50 54 59 61
33 9 10 3 4 4 6 8 4 16 26 23 25 23 23 21 13 6 8 15 27 37 41 44 48 54 52 47 51 55 60 61
Wind_Direction_500mb
85 93 90 117 268 129 74 77 70 84 57 0 31 48 62 81 134 142 166 145 138 126 148 189 200 205 181 178 177 188 185 186
74 45 24 121 215 115 119 50 61 79 45 56 71 66 74 71 135 150 139 124 127 133 145 161 189 200 178 187 186 194 197 201
59 18 340 277 358 101 94 92 40 350 20 40 106 120 21 88 99 122 123 119 109 113 84 67 139 175 174 191 204 213 211 206
80 113 219 48 79 73 75 83 97 93 69 24 118 89 47 79 97 115 115 85 55 51 52 53 8 20 152 181 237 263 260 252
162 154 67 100 63 56 72 147 34 140 98 142 133 73 54 74 93 95 74 56 57 42 61 56 50 16 358 350 314 258 263 263
156 186 107 117 73 79 91 32 122 164 165 170 117 95 90 84 101 37 32 43 43 64 72 65 52 48 42 13 347 318 300 283
174 141 145 145 124 95 88 118 100 126 130 144 127 101 90 108 95 81 77 65 81 85 82 80 59 48 37 10 344 329 314 304
160 139 139 101 100 117 110 85 78 85 112 160 188 131 123 120 101 87 79 80 89 76 65 57 45 40 31 19 3 354 346 336
72 105 110 82 89 116 124 70 119 117 118 123 124 123 124 109 94 86 78 79 79 57 47 36 25 17 12 7 3 359 351 346
102 91 92 17 98 66 90 115 125 124 127 124 122 119 112 103 99 95 82 73 62 44 30 24 21 15 10 7 13 7 359 348
102 107 88 89 58 98 93 117 128 130 129 123 119 111 103 101 91 87 84 73 55 30 23 19 10 4 7 5 351 350 346 338
97 93 98 112 65 93 115 133 123 132 134 131 118 108 110 105 94 89 81 63 36 24 25 2 1 359 358 348 338 335 335 334
95 119 125 132 17 97 136 136 127 132 133 134 124 116 119 112 105 91 62 49 46 27 9 6 3 355 348 333 327 325 328 325
208 167 198 180 161 126 145 140 133 136 141 141 134 136 141 129 118 85 51 55 27 14 13 6 352 344 336 331 326 324 325 328
157 209 189 120 133 176 156 151 141 145 154 156 153 154 154 151 125 96 76 20 342 353 348 342 332 326 328 326 322 324 325 327
155 174 67 87 110 95 151 157 152 160 171 182 176 165 163 167 156 152 295 321 325 329 322 323 321 318 316 318 323 329 332 336
95 44 75 112 111 74 129 144 150 178 197 197 188 184 171 187 206 244 289 308 313 315 324 326 325 324 322 328 331 331 336 338
110 98 97 117 70 60 131 152 180 200 204 205 207 197 190 218 224 256 295 311 318 327 331 334 336 340 343 340 337 337 338 342
132 108 65 117 75 42 338 158 204 222 218 222 226 209 220 221 228 268 314 337 339 337 340 340 342 344 340 334 338 341 346 344
138 121 155 181 164 202 210 207 165 161 175 177 183 176 184 192 173 121 44 354 345 342 341 348 350 347 349 354 352 349 341 340
Wind_Speed_850mb
8 7 7 8 3 13 21 11 8 9 9 5 5 11 15 12 7 8 10 10 10 8 4 6 7 6 5 4 5 6 8 10
9 6 7 7 14 19 20 9 17 10 6 8 5 11 22 11 12 12 11 10 10 10 10 8 8 8 7 3 8 10 11 11
8 6 3 9 11 14 11 9 13 10 4 9 10 27 23 20 12 9 8 5 6 7 6 4 2 6 6 3 4 9 13 15
3 4 3 6 20 46 38 28 16 17 6 5 26 15 15 11 11 12 7 7 10 12 10 8 6 3 1 3 3 7 11 14
11 12 6 7 14 17 16 11 6 18 7 13 16 13 16 14 15 16 15 14 17 9 10 10 14 12 13 12 8 13 19 23
2 9 9 5 12 31 14 4 9 5 9 12 27 24 15 16 11 9 15 12 13 17 17 22 19 13 8 7 12 13 14 18
9 10 10 14 13 22 20 26 11 3 14 31 25 19 15 16 18 14 25 31 34 35 26 24 28 26 18 12 16 19 23 28
7 10 10 15 22 23 15 32 29 32 25 23 12 23 28 31 28 31 37 43 38 34 36 32 35 33 32 33 33 38 39 39
5 27 25 11 11 14 45 10 32 36 44 46 46 41 38 37 38 43 44 41 31 30 32 35 40 45 51 54 51 48 46 46
13 23 21 7 10 18 25 29 47 52 52 57 53 48 44 42 39 38 39 40 37 36 42 45 46 53 59 52 45 55 52 47
44 33 21 27 20 21 34 35 46 52 51 48 46 42 39 35 36 34 31 30 32 35 41 43 48 46 52 56 55 56 45 40
42 28 25 32 5 9 23 43 47 47 44 37 34 35 36 31 30 24 22 21 24 25 27 37 35 34 45 39 41 44 54 57
16 24 13 29 13 15 35 45 51 41 40 35 28 26 24 23 23 19 15 20 21 23 27 32 32 36 37 41 46 52 57 60
13 25 18 6 4 7 30 45 44 40 37 34 28 23 21 24 19 12 15 15 14 17 25 30 30 36 42 47 52 60 68 68
15 31 4 6 9 8 33 38 32 38 31 29 28 26 27 23 12 13 8 8 16 21 29 28 27 32 41 49 56 61 63 65
14 7 10 19 15 9 31 37 28 27 32 29 26 26 23 17 11 5 2 13 18 25 25 28 33 37 45 57 61 59 61 60
9 1 14 15 23 9 19 32 27 30 35 29 25 20 18 12 11 9 9 16 19 23 29 36 43 50 56 58 54 55 54 54
9 10 16 14 13 5 11 26 32 43 34 30 21 22 13 15 17 10 11 15 18 25 32 40 49 51 50 50 50 51 51 53
14 16 19 23 7 1 5 8 7 29 36 29 19 22 24 22 14 7 7 11 19 29 40 45 45 49 53 55 50 54 59 61
33 9 10 3 4 4 6 8 4 16 26 23 25 23 23 21 13 6 8 15 27 37 41 44 48 54 52 47 51 55 60 61
Wind_Direction_850mb
85 93 90 117 268 129 74 77 70 84 57 0 31 48 62 81 134 142 166 145 138 126 148 189 200 205 181 178 177 188 185 186
74 45 24 121 215 115 119 50 61 79 45 56 71 66 74 71 135 150 139 124 127 133 145 161 189 200 178 187 186 194 197 201
59 18 340 277 358 101 94 92 40 350 20 40 106 120 21 88 99 122 123 119 109 113 84 67 139 175 174 191 204 213 211 206
80 113 219 48 79 73 75 83 97 93 69 24 118 89 47 79 97 115 115 85 55 51 52 53 8 20 152 181 237 263 260 252
162 154 67 100 63 56 72 147 34 140 98 142 133 73 54 74 93 95 74 56 57 42 61 56 50 16 358 350 314 258 263 263
156 186 107 117 73 79 91 32 122 164 165 170 117 95 90 84 101 37 32 43 43 64 72 65 52 48 42 13 347 318 300 283
174 141 145 145 124 95 88 118 100 126 130 144 127 101 90 108 95 81 77 65 81 85 82 80 59 48 37 10 344 329 314 304
160 139 139 101 100 117 110 85 78 85 112 160 188 131 123 120 101 87 79 80 89 76 65 57 45 40 31 19 3 354 346 336
72 105 110 82 89 116 124 70 119 117 118 123 124 123 124 109 94 86 78 79 79 57 47 36 25 17 12 7 3 359 351 346
102 91 92 17 98 66 90 115 125 124 127 124 122 119 112 103 99 95 82 73 62 44 30 24 21 15 10 7 13 7 359 348
102 107 88 89 58 98 93 117 128 130 129 123 119 111 103 101 91 87 84 73 55 30 23 19 10 4 7 5 351 350 346 338
97 93 98 112 65 93 115 133 123 132 134 131 118 108 110 105 94 89 81 63 36 24 25 2 1 359 358 348 338 335 335 334
95 119 125 132 17 97 136 136 127 132 133 134 124 116 119 112 105 91 62 49 46 27 9 6 3 355 348 333 327 325 328 325
208 167 198 180 161 126 145 140 133 136 141 141 134 136 141 129 118 85 51 55 27 14 13 6 352 344 336 331 326 324 325 328
157 209 189 120 133 176 156 151 141 145 154 156 153 154 154 151 125 96 76 20 342 353 348 342 332 326 328 326 322 324 325 327
155 174 67 87 110 95 151 157 152 160 171 182 176 165 163 167 156 152 295 321 325 329 322 323 321 318 316 318 323 329 332 336
95 44 75 112 111 74 129 144 150 178 197 197 188 184 171 187 206 244 289 308 313 315 324 326 325 324 322 328 331 331 336 338
110 98 97 117 70 60 131 152 180 200 204 205 207 197 190 218 224 256 295 311 318 327 331 334 336 340 343 340 337 337 338 342
132 108 65 117 75 42 338 158 204 222 218 222 226 209 220 221 228 268 314 337 339 337 340 340 342 344 340 334 338 341 346 344
138 121 155 181 164 202 210 207 165 161 175 177 183 176 184 192 173 121 44 354 345 342 341 348 350 347 349 354 352 349 341 340